Flag Weather past 2 weeks in Erlangen, Bavaria, Germany

Now
55 °F

Scattered clouds.


Feels Like: 55 °F
Forecast: 45 / 62 °F
Wind: 5 mph from Southeast

Location: Nuernberg

Current Time: Oct 31, 2014 at 12:38:54 PM

Latest Report: Oct 31, 2014 at 12:20 PM


Visibility: N/A

Pressure: 30.33 "Hg

Humidity: 82%

Dew point: 50 °F

Location of ErlangenLocation

Historic Weather in Erlangen — Graph

°F

Erlangen temperature yesterday

Maximum temperature yesterday: 52 °F (at 2:20 PM)
Minimum temperature yesterday: 39 °F (at 1:20 AM)
Average temperature yesterday: 47 °F

Past Weeks' High & Low Weather Summary

 TemperatureHumidityPressure
High72 °F (Oct 19, 2:50 PM)100% (Oct 17, 1:20 AM)30.36 "Hg (Oct 17, 1:20 AM)
Low37 °F (Oct 25, 3:20 AM)59% (Oct 24, 1:20 PM)29.56 "Hg (Oct 21, 8:20 PM)
Average50 °F89%30.12 "Hg
* Reported Oct 16 12:20 PM — Oct 31 11:20 AM, Erlangen, Weather by CustomWeather, © 2014

Note: Actual official high and low records may vary slightly from our data, if they occured in-between our weather recording intervals... More about our weather records

Advertising

Erlangen weather history for previous 24 hours

 ConditionsComfort  
Time TempWeatherWind HumidityBarometerVisibility
11:20 AM
Oct 31
52 °FBroken clouds.6 mph94%30.33 "HgN/A
10:50 AM52 °FPartly sunny.7 mph88%30.33 "Hg6 mi
10:20 AM52 °FPartly sunny.6 mph88%30.33 "Hg5 mi
9:50 AM50 °FPartly sunny.6 mph94%30.33 "Hg5 mi
9:20 AM50 °FPartly sunny.8 mph94%30.33 "Hg4 mi
8:50 AM50 °FPartly sunny.5 mph94%30.33 "Hg4 mi
8:20 AM50 °FFog.2 mph94%30.33 "Hg3 mi
7:50 AM46 °FFog.2 mph100%30.33 "Hg3 mi
7:20 AM46 °FFog.2 mph100%30.30 "Hg3 mi
6:50 AM48 °FPassing clouds.5 mph100%30.30 "Hg4 mi
6:20 AM48 °FPassing clouds.5 mph100%30.30 "Hg4 mi
5:50 AM50 °FPassing clouds.5 mph94%30.30 "Hg4 mi
5:20 AM50 °FPassing clouds.3 mph94%30.30 "Hg4 mi
4:50 AM50 °FMostly cloudy.5 mph94%30.30 "Hg4 mi
4:20 AM50 °FMostly cloudy.5 mph94%30.30 "Hg4 mi
3:50 AM50 °FFog.3 mph94%30.30 "Hg3 mi
3:20 AM50 °FMostly cloudy.2 mph94%30.30 "Hg4 mi
2:50 AM50 °FMostly cloudy.5 mph94%30.30 "Hg4 mi
2:20 AM50 °FLow clouds.3 mph94%30.30 "Hg4 mi
1:50 AM50 °FLow clouds.3 mph94%30.30 "Hg4 mi
1:20 AM50 °FFog.6 mph100%30.30 "Hg3 mi
12:50 AM52 °FFog.3 mph94%30.33 "Hg3 mi
12:20 AM50 °FOvercast.5 mph94%30.30 "Hg4 mi
11:50 PM
Oct 30
50 °FOvercast.3 mph94%30.30 "Hg4 mi
11:20 PM50 °FOvercast.5 mph94%30.30 "Hg5 mi
10:50 PM50 °FOvercast.5 mph94%30.33 "Hg5 mi
10:20 PM50 °FOvercast.3 mph94%30.33 "Hg6 mi
9:50 PM50 °FOvercast.3 mph88%30.30 "Hg6 mi
9:20 PM50 °FMostly cloudy.5 mph88%30.30 "HgN/A
8:50 PM50 °FMostly cloudy.5 mph88%30.30 "HgN/A
8:20 PM50 °FOvercast.2 mph88%30.30 "HgN/A
7:50 PM50 °FPassing clouds.3 mph88%30.30 "HgN/A
7:20 PM50 °FPassing clouds.3 mph88%30.30 "HgN/A
6:50 PM50 °FPartly cloudy.2 mph88%30.30 "HgN/A
6:20 PM50 °FPassing clouds.2 mph88%30.30 "HgN/A
5:50 PM50 °FPassing clouds.2 mph88%30.30 "HgN/A
5:20 PM50 °FPassing clouds.1 mph88%30.30 "HgN/A
4:50 PM50 °FPartly sunny.2 mph88%30.27 "HgN/A
4:20 PM52 °FPartly sunny.2 mph82%30.27 "HgN/A
3:50 PM52 °FPartly sunny.3 mph77%30.27 "HgN/A
3:20 PM52 °FOvercast.2 mph77%30.27 "HgN/A
2:50 PM52 °FMore clouds than sun.1 mph82%30.27 "HgN/A
2:20 PM52 °FBroken clouds.1 mph77%30.27 "HgN/A
1:50 PM50 °FPartly sunny.2 mph82%30.27 "Hg6 mi
1:20 PM50 °FPartly sunny.2 mph82%30.27 "Hg6 mi
12:50 PM50 °FPartly sunny.1 mph82%30.27 "Hg6 mi
12:20 PM50 °FOvercast.2 mph76%30.27 "Hg6 mi
Weather by CustomWeather, © 2014

See weather overviewHow to use our weather pages